{"data":{"norad_id":63783,"intl_designator":"2025-091J","name":"STARLINK-33892","alt_names":[],"object_type":"PAYLOAD","status":"ACTIVE","operator":null,"country":"US","launch_date":"2025-05-02","launch_site_code":"AFETR","launch_vehicle":null,"mission":null,"orbit_class":"UNKNOWN","rcs_meters":null,"size_class":null,"mass_kg":null,"dimensions":null,"purposes":["comms"],"wikipedia_slug":null,"has_3d_model":false,"image_url":null,"decayed_at":null,"tle_current":{"epoch":"2026-09-20T08:30:38.837952Z","epoch_age_seconds":162417,"freshness":"FRESH","line1":"1 63783U 25091J   26263.35461618  .00033010  00000+0  12019-2 0  9998","line2":"2 63783  43.0054  33.1660 0001650 260.3456  99.7209 15.27630570 78672","mean_motion":15.2763057,"eccentricity":0.000165,"inclination_deg":43.0054,"raan_deg":33.166,"arg_perigee_deg":260.3456,"mean_anomaly_deg":99.7209,"bstar":0.0012019,"rev_number":7867,"period_min":94.263628149311,"perigee_km":481.76560472301,"apogee_km":484.0297461659,"semimajor_km":6861.0346754445,"source":"CELESTRAK","updated_at":"2026-09-21T09:00:35.099365Z"}}}